Probability
0 0 0 0 0 0 0 0 0 0 0 0 0 1 1 1 0 0 0 1 4 7 6 9 19 27 25 16 9 6 4 4 3 2 2 1 2 4 4 2 1 0 0 0 0 0 0 0 0
0 0 0 0 0 0 0 0 0 0 0 0 0 1 2 1 1 0 0 2 5 8 7 8 15 21 17 10 5 3 2 1 1 1 1 0 1 1 1 1 0 0 0 0 0 0 0 0 0
0 0 0 0 0 0 0 0 0 0 0 0 1 2 1 1 1 2 2 3 5 7 6 6 11 14 10 4 1 0 0 0 0 0 0 0 0 0 0 0 0 0 0 0 0 0 0 0 0
0 0 0 0 0 0 0 0 0 0 0 2 4 4 2 1 2 4 4 3 4 4 4 5 9 10 7 3 1 0 0 0 0 0 0 0 0 0 0 0 0 0 0 0 0 0 0 0 0
0 0 0 0 0 0 0 0 0 0 1 4 7 6 3 2 4 5 4 2 2 3 3 3 5 5 4 2 1 0 0 0 0 0 0 0 0 0 0 0 0 0 0 0 0 0 0 0 0
0 0 0 0 0 0 0 0 0 0 1 4 7 7 3 2 4 4 2 1 1 2 1 1 1 1 1 1 1 0 0 0 0 0 0 0 0 0 0 0 0 0 0 0 0 0 0 0 0
0 0 0 0 0 0 0 0 0 0 1 2 4 4 3 2 3 2 0 0 0 0 0 0 0 0 0 0 0 0 0 0 0 0 0 0 0 0 0 0 0 0 0 0 0 0 0 0 0
0 0 0 0 0 0 0 0 0 0 0 2 2 2 2 3 2 1 0 0 0 0 0 0 0 0 0 0 0 0 0 0 0 0 0 0 0 0 0 0 0 0 0 0 0 0 0 0 0
0 0 0 0 0 0 0 0 0 0 2 4 5 6 7 7 6 4 2 1 1 0 0 0 0 0 0 0 0 0 0 0 0 0 0 0 0 0 0 0 0 0 0 0 0 0 0 0 0
0 0 0 0 0 0 0 0 0 0 3 7 11 13 14 14 12 10 7 4 3 1 0 0 0 0 0 0 0 0 0 0 0 0 0 0 0 0 0 0 0 0 0 0 0 0 0 0 0
0 0 0 0 0 0 0 0 0 0 2 7 13 17 18 16 13 13 14 11 6 2 0 0 0 0 0 0 0 0 0 0 0 0 0 0 0 0 0 0 0 0 0 0 0 0 0 0 0
0 0 0 0 0 0 0 0 0 0 2 6 14 19 18 14 10 11 16 16 10 3 0 0 0 0 0 0 0 0 0 0 0 0 0 0 0 0 0 0 0 0 0 0 0 0 0 0 0
0 0 0 0 0 0 0 0 0 1 3 9 16 19 16 11 7 8 14 19 15 7 2 1 0 0 0 0 0 0 0 0 0 0 0 0 0 0 0 0 0 0 0 0 0 0 0 0 0
0 0 0 0 0 0 0 0 0 1 5 12 16 14 11 8 6 7 13 21 22 14 7 3 1 1 1 1 0 0 0 0 0 0 0 0 0 0 0 0 0 0 0 0 0 0 0 0 0
0 0 0 0 0 0 0 0 0 1 5 10 11 9 8 7 7 9 15 22 25 22 14 8 5 3 3 3 1 1 1 0 0 0 0 0 0 0 0 0 0 0 0 0 0 0 0 0 0
0 0 0 0 0 0 0 0 0 0 3 7 8 8 10 10 10 12 17 21 25 25 23 21 18 14 14 14 11 8 7 6 4 4 5 5 5 5 3 2 1 0 0 0 0 0 0 0 0
0 0 0 0 0 0 0 0 0 0 2 5 8 12 14 14 13 16 20 21 24 27 32 38 42 40 41 42 35 30 27 23 20 19 19 19 18 16 11 5 2 0 0 0 0 0 0 0 0
0 0 0 0 0 0 0 0 1 3 6 10 15 21 25 25 24 24 26 26 27 32 40 51 64 70 72 72 66 58 52 44 37 34 32 31 28 24 17 10 4 1 0 0 0 0 0 0 0
0 0 0 0 0 0 0 2 6 9 13 18 27 36 42 43 44 43 42 41 40 43 49 59 74 84 88 88 83 74 64 52 42 37 35 31 27 23 18 12 6 2 0 0 0 0 0 0 0
0 0 0 0 0 0 1 6 13 18 23 31 42 53 58 58 60 61 60 57 55 56 58 65 76 85 88 88 83 74 62 49 38 31 27 23 20 17 15 11 5 1 0 0 0 0 0 0 0
0 0 0 0 0 0 2 8 15 23 32 43 54 60 61 61 63 66 67 65 63 64 66 70 78 82 84 83 79 70 58 45 34 24 17 14 13 12 10 6 3 1 0 0 0 0 0 0 0
0 0 0 0 0 0 1 4 11 20 32 45 53 55 52 51 54 58 59 62 64 65 68 73 77 79 80 78 74 66 55 41 28 18 11 8 7 6 4 2 1 0 0 0 0 0 0 0 0
0 0 0 0 0 0 0 1 5 13 24 37 44 43 38 35 39 43 45 49 52 53 57 63 68 68 67 65 59 52 42 29 19 12 7 4 2 1 1 0 0 0 0 0 0 0 0 0 0
0 0 0 0 0 0 0 1 3 8 16 27 33 30 24 20 21 25 27 28 29 30 35 42 45 45 43 40 36 31 23 16 11 7 4 1 0 0 0 0 0 0 0 0 0 0 0 0 0
0 0 0 0 0 0 0 3 6 9 13 20 22 17 12 9 8 10 12 11 10 11 14 18 20 19 18 16 15 14 11 8 6 4 3 1 0 0 0 0 0 0 0 0 0 0 0 0 0
0 0 0 0 0 0 0 5 11 11 10 11 10 7 4 3 2 2 3 3 2 2 3 4 4 4 4 5 5 5 4 4 3 3 2 1 0 0 0 0 0 0 0 0 0 0 0 0 0
0 0 0 0 0 0 1 6 10 8 5 4 2 1 1 1 0 0 0 0 0 0 0 0 0 0 1 1 1 1 1 1 1 1 1 0 0 0 0 0 0 0 0 0 0 0 0 0 0
0 0 0 0 0 0 1 3 4 5 3 1 0 0 0 0 0 0 0 0 0 0 0 0 0 0 0 0 0 0 0 0 0 0 0 0 0 0 0 0 0 0 0 0 0 0 0 0 0
0 0 0 0 0 0 0 1 2 5 4 1 0 0 0 0 0 0 0 0 0 0 0 0 0 0 0 0 0 0 0 0 0 0 0 0 0 0 0 0 0 0 0 0 0 0 0 0 0
0 0 0 0 0 0 0 1 3 6 4 1 0 0 0 0 0 0 0 0 0 0 0 0 0 0 0 0 0 0 0 0 0 0 0 0 0 0 0 0 0 0 0 0 0 0 0 0 0
Wind_Speed
10 8 1 3 5 4 2 3 3 3 2 2 3 6 7 4 4 4 5 16 18 16 12 15 17 18 18 17 17 17 17 16 16 16 16 16 16 15 15 14 14 13 12 12 11 11 10 10 10
5 5 4 5 5 2 5 3 4 5 5 4 5 6 7 5 7 10 8 15 19 16 11 13 18 18 18 18 17 17 17 17 16 15 16 16 15 14 14 14 13 12 11 11 10 9 8 8 7
6 1 3 4 2 4 5 5 4 3 4 5 4 3 5 7 9 7 11 19 17 14 10 14 19 18 18 18 17 17 17 17 16 16 16 15 15 14 13 13 13 12 11 10 9 8 7 6 5
4 5 4 3 6 8 7 11 10 5 2 4 6 5 4 4 8 12 19 19 18 13 11 14 19 18 18 18 18 17 17 17 16 16 16 15 14 14 13 13 12 11 10 9 8 7 6 4 3
4 4 2 3 7 8 7 11 10 7 2 4 8 6 4 5 17 22 20 18 18 12 9 12 17 18 18 18 18 17 17 16 16 16 15 15 14 13 13 12 12 11 10 9 8 6 5 3 2
4 4 1 6 10 9 9 8 8 6 1 6 9 7 4 10 19 19 17 15 16 14 10 11 18 19 18 18 17 17 16 16 15 15 15 14 13 13 12 12 12 11 10 9 7 6 5 3 2
4 4 5 7 8 11 14 8 7 3 2 5 8 8 6 10 15 16 15 15 14 14 11 8 10 14 17 17 17 16 16 15 15 15 15 14 14 13 13 12 11 10 10 9 8 7 6 5 4
5 4 4 5 7 12 10 7 7 4 2 6 8 12 9 12 15 15 15 14 13 11 10 9 8 8 8 11 17 17 17 16 16 16 16 16 15 14 14 11 11 11 11 10 9 8 7 6 5
4 3 6 7 7 10 8 8 9 5 1 1 4 8 14 19 18 16 14 12 11 12 9 10 9 8 8 8 13 14 16 15 15 14 16 13 7 7 8 11 12 12 11 10 9 8 7 7 6
5 5 10 8 7 9 11 11 10 5 2 2 5 9 16 18 18 18 18 17 15 15 12 10 10 10 9 9 8 6 7 8 7 6 8 6 5 5 7 9 13 13 12 11 10 9 7 6 3
6 8 8 10 12 10 11 13 7 2 2 6 13 18 18 16 14 15 17 17 17 16 15 13 12 12 10 7 7 5 4 5 6 7 7 5 4 4 5 3 6 6 8 4 5 5 3 3 2
4 7 8 10 11 8 9 8 6 3 5 8 16 21 18 17 15 14 14 15 14 15 16 15 14 12 11 8 7 6 5 5 5 7 8 5 4 4 4 3 3 3 2 3 2 2 2 2 3
6 10 12 12 11 10 9 7 4 4 3 9 14 17 17 14 12 10 11 12 13 15 15 16 15 14 12 9 7 8 7 7 7 6 7 6 4 4 4 3 3 3 2 2 2 2 1 1 0
7 7 9 10 11 7 7 7 1 4 4 10 14 15 16 16 15 11 9 11 14 15 15 15 16 15 12 10 9 8 7 6 6 5 7 7 5 4 4 4 3 3 2 2 1 1 2 2 2
5 6 10 8 8 7 4 7 5 6 5 8 11 13 14 14 12 12 12 11 13 14 13 15 16 15 14 13 11 8 7 6 6 5 6 6 5 5 5 4 4 3 3 3 3 3 3 3 4
3 2 5 9 5 6 3 10 11 6 7 9 10 11 12 11 12 12 12 11 11 13 13 14 15 15 14 11 10 7 6 6 5 4 4 6 6 6 5 4 4 3 3 3 4 3 3 3 3
3 2 4 8 5 4 5 9 10 6 8 9 10 10 9 8 9 10 12 14 14 13 12 13 12 13 12 10 7 6 5 5 4 4 4 5 6 6 5 4 4 4 4 3 3 3 3 3 3
4 3 4 6 6 3 7 11 10 5 6 7 8 8 9 8 8 10 11 12 11 9 10 11 10 11 11 8 6 5 5 4 4 4 4 5 5 6 6 5 5 5 4 3 3 4 3 3 2
4 5 8 10 9 6 12 13 9 4 1 3 6 8 9 6 4 4 4 6 7 6 6 8 9 10 10 8 7 6 5 5 5 4 5 5 6 6 6 5 5 4 4 3 4 3 4 3 1
6 8 10 11 9 5 8 9 4 1 3 6 8 9 9 8 6 5 4 5 6 6 6 6 8 10 10 7 6 5 6 5 5 5 6 6 6 6 5 6 4 4 4 5 4 3 3 2 2
9 7 8 8 9 5 3 1 0 4 10 12 11 10 9 9 8 6 6 6 5 4 4 6 6 7 8 8 7 8 6 5 4 5 5 5 7 7 7 6 5 5 4 4 3 3 4 2 2
8 7 6 4 3 4 3 1 3 4 8 10 10 10 9 9 9 8 8 8 7 5 4 5 5 6 6 8 9 10 7 6 5 5 6 7 8 8 7 7 6 6 5 5 4 4 3 3 2
8 6 2 2 0 2 3 3 5 3 6 7 9 10 10 10 10 10 10 10 10 10 8 7 8 8 6 6 7 8 7 7 7 7 9 8 7 8 8 7 7 6 5 6 6 5 5 3 3
5 2 5 5 5 2 3 2 4 2 4 9 9 10 10 10 10 11 11 11 12 12 11 11 12 11 9 9 8 9 11 11 10 9 8 7 6 6 8 8 7 7 6 6 6 6 7 5 5
3 6 4 5 4 4 4 3 1 6 9 12 12 11 10 10 10 11 12 13 13 13 13 12 14 13 12 12 11 10 11 11 11 9 8 7 6 5 6 7 7 6 6 6 6 6 6 5 5
3 8 7 4 2 4 4 3 5 10 13 14 13 11 11 10 10 11 11 11 12 13 13 14 15 14 13 14 13 12 11 9 8 9 8 8 6 5 6 7 7 7 7 7 6 5 5 5 5
3 3 8 6 1 1 2 4 6 9 11 12 12 11 11 10 10 11 11 12 12 13 13 14 15 15 14 14 14 14 13 12 11 10 9 7 6 6 7 7 7 7 6 6 6 5 4 5 4
4 3 5 5 3 3 2 3 2 8 10 10 10 10 10 10 10 11 11 12 12 13 13 14 15 15 14 13 13 12 12 11 10 9 9 8 7 6 6 6 6 6 7 6 6 5 5 6 4
3 3 3 3 4 5 2 1 5 7 11 12 10 10 10 10 10 10 11 11 12 12 13 13 14 14 13 13 12 12 11 10 9 8 7 6 6 6 6 6 7 8 8 7 7 6 6 6 5
5 2 4 4 2 2 3 3 7 10 12 13 12 11 10 10 10 11 11 12 12 12 12 12 12 12 12 11 11 11 10 10 9 8 7 7 7 6 7 8 9 9 9 7 7 7 7 6 5
Wind_Direction
322 317 335 72 47 39 279 248 179 201 247 231 140 118 113 109 146 153 128 139 135 140 147 146 142 138 135 132 129 125 122 119 115 112 110 108 106 105 104 104 103 103 102 100 98 95 91 88 85
319 328 24 58 76 352 278 241 189 199 195 141 114 113 98 83 95 110 122 140 137 139 143 146 143 141 138 136 134 132 130 127 123 119 117 115 114 113 112 113 112 112 110 108 105 101 98 93 88
313 341 59 66 133 201 259 285 280 247 201 149 128 88 96 122 119 124 140 139 135 137 141 147 145 143 141 140 139 138 136 134 131 129 127 125 123 122 122 123 123 122 121 119 116 114 110 104 96
17 24 42 76 248 240 241 276 288 296 222 151 121 81 68 121 129 133 138 140 135 137 142 147 145 144 144 144 144 143 143 142 140 139 136 134 133 132 132 132 133 133 132 132 131 130 128 123 111
56 62 20 291 263 262 262 275 283 278 222 132 109 92 42 37 116 131 140 141 137 136 140 145 145 145 146 147 148 148 148 148 147 145 143 142 141 140 141 142 144 145 146 146 147 148 149 151 148
51 76 152 254 266 278 281 284 289 275 158 117 106 102 71 120 127 139 141 141 138 139 139 144 148 148 149 150 151 151 152 152 150 149 149 148 148 149 150 152 154 156 158 159 163 168 175 189 209
131 136 210 238 270 283 278 300 287 273 184 158 131 106 116 142 142 143 141 137 136 139 141 143 149 151 153 153 153 153 154 154 154 154 154 155 156 157 160 161 164 166 169 173 180 188 199 213 231
152 137 226 237 253 269 278 308 295 300 224 144 127 132 156 163 148 142 138 136 137 141 147 149 148 148 149 154 157 157 158 158 159 160 162 164 166 167 170 170 175 178 182 188 196 205 216 228 242
128 118 226 230 230 259 296 315 309 316 97 129 138 150 154 150 145 141 139 138 145 152 157 156 154 153 151 154 162 161 163 165 165 168 171 169 170 172 175 182 185 189 194 201 209 219 231 246 260
136 182 229 232 236 267 294 296 299 311 345 65 79 106 137 145 148 151 153 158 163 165 169 166 163 162 161 165 158 162 166 168 169 172 174 171 172 183 187 196 196 199 203 212 222 231 244 258 271
174 199 232 251 256 264 282 288 296 277 241 172 154 148 152 148 152 158 162 167 171 171 172 173 172 170 172 166 161 168 167 170 178 181 180 177 178 191 197 194 205 208 211 220 238 246 251 267 281
228 246 236 248 256 260 265 283 305 263 231 181 161 153 155 155 161 165 167 170 170 173 179 176 176 176 180 169 172 174 174 180 188 192 189 182 186 196 195 191 193 196 204 213 239 256 261 278 290
240 257 261 256 258 255 261 270 286 279 191 142 147 149 155 159 167 168 163 164 168 177 181 181 180 181 181 172 180 181 185 188 194 194 194 188 187 191 184 182 183 193 203 209 221 245 263 283 348
234 246 262 260 255 255 259 275 285 255 146 142 154 163 166 170 174 168 161 165 176 184 186 184 185 184 180 179 185 185 189 188 190 196 195 190 184 179 173 172 174 185 196 194 170 148 116 83 79
245 272 287 275 253 251 264 292 245 218 165 162 172 176 176 178 176 175 170 173 182 188 188 187 188 186 184 182 186 185 188 183 188 193 189 183 175 166 158 155 157 161 147 133 112 97 88 89 87
334 301 278 278 249 246 191 260 263 220 182 193 195 190 185 179 178 177 168 170 187 190 186 189 190 187 186 182 182 179 178 176 182 178 173 174 167 154 144 143 143 135 122 117 114 104 91 84 88
352 261 260 284 269 229 198 244 261 229 186 199 196 190 180 174 178 182 176 179 183 189 182 186 190 183 179 171 164 155 151 158 160 153 152 154 148 140 128 126 123 117 106 105 115 93 99 97 95
253 272 281 266 278 231 231 245 261 253 191 195 184 168 162 170 185 189 189 182 181 187 184 181 179 174 165 153 138 126 117 122 118 123 130 129 122 121 114 111 108 107 103 95 95 96 78 84 92
251 280 282 275 270 241 235 239 249 246 162 164 155 145 138 145 164 157 167 166 165 173 184 182 171 171 164 158 153 141 130 119 107 102 103 104 104 106 109 111 104 103 102 103 105 100 88 60 39
271 280 282 290 290 270 228 228 236 95 104 127 129 121 117 111 97 91 96 116 144 170 184 177 177 173 172 162 149 132 124 114 104 95 85 91 98 96 98 101 103 100 102 98 92 101 103 68 32
267 243 254 274 312 344 118 283 217 67 83 82 74 82 83 94 96 83 76 78 95 116 155 170 172 169 158 137 120 112 104 101 95 91 84 74 87 89 91 93 93 93 100 104 94 97 115 118 50
259 245 243 275 348 317 70 163 290 107 83 79 73 69 67 65 68 68 62 62 60 53 73 108 132 133 131 132 139 142 141 135 120 109 98 81 73 78 82 85 87 85 84 87 82 77 90 109 99
238 249 246 269 161 352 17 109 283 98 101 96 83 70 60 54 55 55 51 52 50 46 56 70 84 84 89 103 122 123 116 112 109 104 97 84 72 70 76 82 84 84 81 79 74 73 71 76 92
235 13 19 45 68 8 265 133 283 342 142 121 96 75 61 54 52 51 48 48 50 51 54 61 72 69 70 78 87 105 113 115 112 104 98 85 76 68 67 76 76 78 80 76 73 72 72 71 73
97 82 32 9 23 260 268 123 83 39 84 108 101 82 65 55 51 49 47 47 48 50 53 60 68 66 66 74 76 84 95 99 101 102 98 94 83 76 72 74 74 72 72 72 71 70 66 65 71
167 134 150 174 207 289 345 103 93 85 86 90 89 85 76 66 59 56 54 54 55 56 57 62 67 67 67 71 73 72 77 82 84 86 91 88 85 80 80 77 74 70 67 66 65 66 64 64 64
151 172 167 138 187 297 297 112 114 110 101 98 94 88 83 76 70 67 63 61 61 61 60 64 69 68 68 71 75 73 73 79 84 85 85 86 88 89 81 80 75 69 68 66 64 59 52 54 51
143 145 88 113 160 240 264 160 193 161 134 115 104 98 92 85 79 75 72 70 68 67 67 67 70 71 70 72 75 80 79 81 82 83 84 85 83 84 83 78 77 70 62 60 63 57 49 53 42
62 56 95 130 158 165 223 326 335 155 137 124 111 105 100 94 87 84 82 80 77 74 72 73 73 75 74 74 77 79 77 77 79 80 80 80 79 77 78 77 73 68 61 58 60 56 51 50 38
104 120 125 137 247 157 142 54 30 100 109 114 112 106 98 94 90 86 84 83 79 77 76 75 76 77 77 78 79 78 77 76 76 74 70 70 69 66 69 72 73 71 65 57 56 50 42 36 25